Location: Unspecified
(41.5000°N, 0.0000°E)
Time: 02:58:29
(UTC+00:00)

Courier 1B Rocket - Pass Details

Date: 29 June 2019
Orbit: 920 x 1202 km, 28.2° (Epoch: 19 July)

Event Time Altitude Azimuth Distance (km) Brightness Sun altitude
Rises 23:23:43 0° 205° (SSW) 4,085 - -24.6°
Reaches altitude 10° 23:28:31 10° 180° (S) 3,108 - -24.8°
Maximum altitude 23:31:45 13° 155° (SSE) 2,861 - -24.9°
Drops below altitude 10° 23:34:56 10° 130° (SE) 3,064 - -25.0°
Sets 23:39:34 0° 105° (ESE) 3,974 - -25.1°
Exits shadow 23:39:44 - 104° (ESE) 4,013 8.0 -25.1°
